Date/Time (UTC),ProbHail,ProbWind,ProbTor,MESH,VIL Density,Flash Rate,Max Flash Density,LJA sigma-level,Max 0-2km AzShear,LLAZ 98th%,MLAZ 98th%,MUCAPE,MLCAPE,CAPE -10C to -30C,MLCIN,SRH 0-1km AGL,EBShear,MeanWind 0-1km AGL,Norm. Sat. Growth Rate,PWAT,WBZ,AvgBeamHgt,size
2019/05/20 18:44,4,1,3,0.06,0.60,0,0.00,0.0,4,3,3,4555,3851,1078,3,156,58.8,38.3,0,1.3,3169.92,1240.0,45
2019/05/20 18:46,4,1,3,0.06,0.70,0,0.03,0.0,4,3,4,4544,3866,1083,2,158,58.8,38.3,0,1.3,3169.92,1290.0,83
2019/05/20 18:48,5,3,3,0.16,1.10,1,0.04,0.0,4,3,3,4540,3870,1086,2,159,58.8,38.2,0,1.3,3200.4,1310.0,94
2019/05/20 18:50,4,2,4,0.18,1.10,1,0.04,0.0,3,2,5,4537,3883,1095,2,161,58.9,38.2,0,1.3,3200.4,1350.0,79
2019/05/20 18:52,4,2,4,0.18,1.10,1,0.04,0.0,3,2,4,4537,3883,1095,2,161,58.9,38.2,0,1.3,3200.4,1350.0,79
2019/05/20 18:54,4,20,2,0.20,1.20,1,0.04,0.0,4,4,4,4608,3921,1153,2,109,61.5,35.2,0,1.3,3200.4,1410.0,93
2019/05/20 18:56,4,20,3,0.20,1.20,1,0.04,0.0,4,4,5,4605,3931,1160,2,111,61.3,35.3,0,1.3,3230.88,1450.0,85
2019/05/20 18:58,5,20,3,0.22,1.50,0,0.04,0.0,4,4,5,4613,3941,1171,2,114,61.2,35.3,0,1.3,3261.36,1500.0,98
2019/05/20 19:00,5,35,7,0.22,1.50,2,0.06,0.0,7,6,4,4625,3954,1182,2,118,61.3,35.4,0,1.4,3261.36,1550.0,99
2019/05/20 19:02,9,37,7,0.36,1.50,2,0.06,0.0,7,6,6,4636,3954,1186,2,120,61.3,35.4,0,1.4,3261.36,1550.0,93
2019/05/20 19:04,20,39,7,0.39,1.60,4,0.08,0.0,7,6,6,4650,3965,1190,2,123,61.4,35.4,0,1.4,3291.84,1590.0,95
2019/05/20 19:06,20,36,6,0.39,1.60,7,0.17,0.0,7,5,5,4671,3971,1194,2,126,61.7,35.4,0,1.4,3291.84,1610.0,90
2019/05/20 19:08,23,34,4,0.44,1.60,7,0.17,0.0,7,4,5,4685,3976,1195,2,128,62.0,35.4,0,1.4,3291.84,1630.0,112
2019/05/20 19:10,24,34,5,0.44,1.60,7,0.17,0.0,6,5,2,4739,4000,1198,2,137,62.9,35.5,0,1.4,3291.84,1700.0,40
2019/05/20 19:12,26,36,5,0.48,1.60,7,0.31,0.0,6,5,2,4755,4009,1197,2,139,63.3,35.5,0,1.4,3291.84,1720.0,49
2019/05/20 19:14,26,36,5,0.48,1.60,7,0.31,0.0,6,5,4,4755,4009,1197,2,139,63.3,35.5,0,1.4,3291.84,1720.0,49
2019/05/20 19:16,26,36,4,0.48,2.10,7,0.31,0.0,5,4,5,4771,4014,1194,2,143,64.1,35.6,0,1.4,3322.32,1780.0,125
2019/05/20 19:18,31,42,4,0.54,2.20,10,0.31,0.0,6,4,5,4777,4016,1190,1,145,64.8,35.7,0,1.4,3322.32,1850.0,211
2019/05/20 19:20,41,51,5,0.65,2.20,10,0.31,0.0,6,5,6,4792,4023,1190,1,146,65.0,35.7,0,1.4,3322.32,1880.0,224
2019/05/20 19:22,41,51,6,0.65,2.20,10,0.31,0.0,6,5,6,4807,4031,1188,1,148,65.4,35.8,0,1.4,3322.32,1920.0,225
2019/05/20 19:24,46,57,8,0.66,2.10,11,0.31,2.7,7,5,7,4825,4043,1183,1,151,65.7,36.0,0,1.4,3352.8,2000.0,205
2019/05/20 19:26,55,62,8,0.77,2.10,11,0.31,0.0,7,5,5,4836,4044,1182,1,152,66.0,36.0,0,1.4,3352.8,2029.9999999999998,67
2019/05/20 19:28,57,58,8,0.77,1.90,13,0.31,1.8,7,5,4,4854,4060,1179,1,153,66.1,36.3,0,1.4,3352.8,2100.0,203
2019/05/20 19:30,57,49,5,0.77,2.10,13,0.31,0.0,5,4,4,4874,4083,1177,1,155,66.4,36.5,0,1.4,3352.8,2160.0,201
2019/05/20 19:32,53,61,6,0.74,2.10,13,0.31,0.0,6,5,5,4940,4141,1177,2,159,66.9,36.8,0,1.5,3352.8,2220.0,212
2019/05/20 19:34,53,67,8,0.74,2.10,13,0.31,0.0,7,6,6,4940,4141,1177,2,159,66.9,36.8,0,1.5,3352.8,2220.0,212
2019/05/20 19:36,51,63,11,0.74,2.10,9,0.31,0.0,7,6,6,4972,4163,1178,2,161,67.2,36.9,0,1.5,3383.28,2230.0,211
2019/05/20 19:38,49,57,11,0.74,2.10,4,0.31,0.0,7,6,4,5003,4194,1179,2,162,67.4,37.2,0,1.5,3383.28,2270.0,230
2019/05/20 19:40,31,54,12,0.52,1.70,11,0.31,4.4,8,6,7,5022,4209,1182,2,163,67.5,37.1,0,1.5,3383.28,2250.0,253
2019/05/20 19:42,51,44,5,0.64,1.70,22,0.36,2.3,6,3,7,5082,4258,1186,2,165,67.9,37.3,0,1.5,3383.28,2280.0,221
2019/05/20 19:44,76,68,7,0.92,2.10,23,0.36,0.2,6,5,7,5086,4243,1185,2,166,68.0,37.1,0,1.5,3383.28,2260.0,205
2019/05/20 19:46,82,76,8,0.92,2.10,32,0.42,1.4,6,5,5,5111,4269,1189,2,166,68.2,37.4,0,1.5,3383.28,2290.0,260
2019/05/20 19:48,82,81,8,0.92,2.10,32,0.42,0.0,5,5,5,5112,4279,1191,2,166,68.2,37.4,0,1.5,3383.28,2300.0,260
2019/05/20 19:50,70,71,6,0.72,1.90,32,0.42,0.0,6,5,5,5110,4292,1193,3,166,68.2,37.6,0,1.5,3383.28,2330.0,205
2019/05/20 19:52,74,78,8,0.83,1.90,32,0.42,0.0,6,5,5,5648,4615,1148,4,202,66.9,37.0,0,1.7,3383.28,2320.0,275
2019/05/20 19:54,67,74,8,0.83,2.20,23,0.42,1.1,6,5,4,5540,4577,1148,4,216,67.0,36.9,0,1.7,3383.28,2320.0,271
2019/05/20 19:56,78,82,8,0.83,2.20,40,0.76,1.7,7,4,5,5433,4534,1148,3,224,66.9,37.0,0,1.8,3383.28,2340.0,273
2019/05/20 19:58,83,85,29,0.95,2.20,41,0.76,0.1,10,8,6,5383,4523,1148,3,227,67.0,37.0,0,1.8,3383.28,2330.0,294
2019/05/20 20:00,83,85,29,0.95,2.00,41,0.76,0.0,10,8,5,5316,4495,1146,3,230,66.9,37.0,0,1.8,3383.28,2330.0,303
2019/05/20 20:02,83,91,29,0.95,2.20,41,0.76,0.0,10,8,5,5240,4451,1145,3,234,66.9,37.1,0,1.8,3383.28,2350.0,269
2019/05/20 20:04,93,89,17,1.29,2.50,41,0.76,0.0,10,6,5,5193,4418,1142,3,237,66.9,37.2,0,1.8,3383.28,2370.0,266
2019/05/20 20:06,94,92,21,1.54,3.30,27,0.76,0.7,9,6,6,5206,4439,1139,3,236,67.2,37.0,0,1.8,3383.28,2360.0,220
2019/05/20 20:08,95,95,21,1.54,3.30,32,0.76,1.0,9,6,5,4968,4336,1129,3,246,67.2,37.2,0,1.8,3383.28,2350.0,286
2019/05/20 20:10,97,89,18,1.79,3.30,32,0.76,0.0,9,6,5,4893,4284,1122,3,251,67.3,37.4,0,1.8,3383.28,2330.0,301
2019/05/20 20:12,97,92,17,1.99,3.30,32,0.76,0.0,8,5,7,4883,4262,1122,3,251,67.4,37.5,0,1.8,3383.28,2320.0,338
2019/05/20 20:14,97,92,20,1.99,3.30,32,0.76,0.0,8,5,6,4832,4232,1113,3,251,67.6,37.5,0,1.8,3383.28,2310.0,355
2019/05/20 20:16,98,95,20,2.42,3.50,42,0.76,3.6,8,5,7,4785,4206,1104,3,251,67.8,37.6,0,1.8,3383.28,2310.0,347
2019/05/20 20:18,98,95,22,2.42,3.60,42,0.76,0.0,8,6,7,4777,4197,1101,3,251,67.8,37.7,0,1.8,3383.28,2300.0,376
2019/05/20 20:20,98,95,22,2.42,3.60,42,0.76,0.0,9,6,7,4712,4157,1084,3,249,68.0,37.8,0,1.8,3383.28,2290.0,386
2019/05/20 20:22,98,95,22,2.51,3.60,42,0.76,0.0,9,6,5,4694,4153,1080,3,248,68.1,37.8,0,1.8,3383.28,2290.0,392
2019/05/20 20:24,97,95,22,2.56,3.60,30,0.76,0.0,9,6,5,4670,4134,1072,3,241,68.1,37.9,0,1.8,3383.28,2280.0,411
2019/05/20 20:26,97,95,18,2.56,3.60,29,0.76,0.6,9,6,6,4670,4134,1072,3,241,68.1,37.9,0,1.8,3383.28,2280.0,411
2019/05/20 20:28,97,95,22,2.56,3.50,29,0.76,0.0,8,8,5,4663,4127,1068,3,237,68.2,38.0,0,1.8,3383.28,2250.0,402
2019/05/20 20:30,98,95,35,2.53,3.50,41,0.57,4.2,10,8,8,4648,4123,1065,3,233,68.2,38.1,0,1.8,3383.28,2240.0,439
2019/05/20 20:32,98,95,46,2.53,3.50,41,0.57,0.0,11,9,8,4624,4111,1055,3,226,68.3,38.1,0,1.8,3383.28,2210.0,382
2019/05/20 20:34,98,95,47,2.27,3.40,47,0.61,1.2,11,9,7,4603,4102,1051,3,224,68.3,38.1,0,1.8,3352.8,2210.0,375
2019/05/20 20:36,96,95,47,1.70,3.10,47,0.61,0.0,11,9,8,4554,4089,1039,2,217,68.2,38.1,0,1.8,3352.8,2210.0,388
2019/05/20 20:38,94,95,36,1.52,3.00,47,0.61,0.4,10,8,7,4496,4073,1026,2,211,68.2,38.1,0,1.8,3352.8,2190.0,347
2019/05/20 20:40,86,95,36,1.11,2.50,47,0.61,0.0,10,8,7,4484,4068,1022,2,210,68.1,38.1,0,1.8,3352.8,2200.0,337
2019/05/20 20:42,80,91,31,1.11,2.50,30,0.61,0.0,10,8,7,4450,4067,1016,2,206,67.9,38.2,0,1.8,3352.8,2180.0,296
2019/05/20 20:44,64,84,23,0.89,2.20,30,0.61,0.1,9,7,7,4431,4061,1012,2,205,67.7,38.2,0,1.8,3352.8,2170.0,293
2019/05/20 20:46,53,81,23,0.77,2.20,24,0.61,0.8,9,7,7,4436,4074,1011,2,202,67.2,38.3,0,1.8,3352.8,2130.0,272
2019/05/20 20:48,53,74,27,0.77,1.90,24,0.61,0.0,10,7,6,4429,4082,1006,2,199,66.7,38.5,0,1.8,3352.8,2100.0,287
2019/05/20 20:50,38,79,27,0.65,1.80,24,0.61,0.6,10,7,5,4429,4087,1006,2,199,66.4,38.5,0,1.8,3352.8,2100.0,244
2019/05/20 20:52,25,76,25,0.53,1.80,24,0.61,0.4,10,7,6,4277,4018,978,2,200,65.0,38.2,0,1.8,3352.8,2180.0,183
2019/05/20 20:54,26,67,17,0.56,1.70,22,0.61,0.2,9,6,5,4252,4004,972,2,200,64.5,38.2,0,1.8,3352.8,2190.0,195
2019/05/20 20:56,16,62,15,0.56,1.60,22,0.61,0.0,8,6,5,3976,3660,975,0,198,56.2,37.0,0,1.9,3322.32,2210.0,145
2019/05/20 20:58,18,65,19,0.56,1.60,22,0.61,0.2,9,8,4,3981,3644,971,0,198,56.4,36.9,0,1.9,3352.8,2190.0,115
2019/05/20 21:00,20,76,77,0.60,1.50,22,0.61,0.0,13,11,10,3948,3609,957,0,200,55.4,36.6,0,1.8,3322.32,2240.0,91
